Flag for Romania Weather past 2 weeks in Târgu Mureş, Romania

39 °F

Passing clouds.

Feels Like: 37 °F
Forecast: 34 / 46 °F
Wind: 3 mph from Northwest

Location: Tirgu Mures Airport

Current Time: Dec 1, 2015 at 1:25:38 AM

Latest Report: Dec 1, 2015 at 12:00 AM

Visibility: N/A

Pressure: 30.04 "Hg

Humidity: 93%

Dew point: 37 °F

Location of Târgu MureşLocation

Historic Weather in Târgu Mureş — Graph


Târgu Mureş temperature yesterday

Maximum temperature yesterday: 45 °F (at 2:00 PM)
Minimum temperature yesterday: 36 °F (at 12:00 AM)
Average temperature yesterday: 40 °F

Past Weeks' High & Low Weather Summary

High61 °F (Nov 18, 2:30 PM)100% (Nov 16, 3:00 AM)30.27 "Hg (Nov 16, 3:00 AM)
Low28 °F (Nov 23, 9:00 PM)45% (Nov 19, 1:30 PM)29.18 "Hg (Nov 22, 1:00 AM)
Average41 °F88%29.90 "Hg
* Reported Midnight between Nov 15 and Nov 16 — Midnight between Nov 30 and Dec 1, Târgu Mureş, Weather by CustomWeather, © 2015

Note: Actual official high and low records may vary slightly from our data, if they occured in-between our weather recording intervals... More about our weather records


Târgu Mureş weather history for previous 24 hours

Time TempWeatherWind HumidityBarometerVisibility
12:00 AM
Tue, Dec 1
39 °FPassing clouds.3 mph93%30.04 "HgN/A
11:00 PM
Mon, Nov 30
39 °FPassing clouds.8 mph87%30.04 "HgN/A
10:00 PM41 °FPassing clouds.9 mph87%30.04 "HgN/A
9:00 PM39 °FPassing clouds.1 mph87%30.04 "HgN/A
8:30 PM39 °FPassing clouds.5 mph87%30.01 "HgN/A
8:00 PM41 °FPassing clouds.10 mph87%30.01 "HgN/A
7:30 PM41 °FPassing clouds.7 mph87%30.01 "HgN/A
7:00 PM41 °FPassing clouds.8 mph87%30.01 "HgN/A
6:30 PM43 °FPassing clouds.9 mph81%30.01 "HgN/A
6:00 PM43 °FLight rain. Passing clouds.8 mph81%30.01 "HgN/A
5:30 PM43 °FPassing clouds.7 mph87%30.01 "HgN/A
5:00 PM45 °FPassing clouds.6 mph81%30.01 "HgN/A
4:30 PM45 °FPartly sunny.5 mph81%30.01 "HgN/A
4:00 PM45 °FPartly sunny.8 mph81%30.01 "HgN/A
3:30 PM45 °FLight rain. Partly sunny.9 mph81%30.01 "HgN/A
3:00 PM45 °FLight rain. Partly sunny.10 mph81%30.01 "HgN/A
2:30 PM45 °FPartly sunny.12 mph81%30.01 "HgN/A
2:00 PM45 °FPartly sunny.9 mph81%30.01 "HgN/A
1:30 PM43 °FLight rain. Overcast.9 mph87%30.01 "HgN/A
1:00 PM43 °FLight rain. More clouds than sun.9 mph87%30.04 "HgN/A
12:30 PM43 °FMore clouds than sun.10 mph81%30.04 "HgN/A
12:00 PM43 °FLight rain. More clouds than sun.9 mph81%30.04 "HgN/A
11:30 AM41 °FLight rain. Broken clouds.7 mph87%30.04 "HgN/A
11:00 AM41 °FBroken clouds.6 mph87%30.04 "HgN/A
10:30 AM39 °FLight rain. Broken clouds.5 mph87%30.07 "HgN/A
10:00 AM39 °FLight rain. Broken clouds.2 mph93%30.07 "HgN/A
9:00 AM37 °FPartly sunny.3 mph93%30.07 "HgN/A
8:30 AM36 °FScattered clouds.1 mph100%30.07 "Hg6 mi
8:00 AM36 °FScattered clouds.No wind93%30.07 "Hg5 mi
7:30 AM36 °FLight rain. Partly cloudy.No wind93%30.07 "HgN/A
7:00 AM36 °FPartly cloudy.3 mph93%30.07 "HgN/A
6:30 AM36 °FPartly cloudy.3 mph93%30.07 "HgN/A
5:30 AM36 °FMostly cloudy.No wind93%30.07 "HgN/A
5:00 AM36 °FPartly cloudy.No wind87%30.07 "HgN/A
4:00 AM36 °FPartly cloudy.2 mph93%30.07 "HgN/A
3:00 AM36 °FPartly cloudy.No wind93%30.09 "HgN/A
2:00 AM36 °FLight rain. Mostly cloudy.No wind93%30.09 "Hg5 mi
1:00 AM36 °FLight rain. Mostly cloudy.No wind87%30.12 "HgN/A
Weather by CustomWeather, © 2015

See weather overviewHow to use our weather pages